Radiation Dose at Monitoring Post of Fukushima Daini Nuclear Power Station
Date,Time,MP-1(microSv/h),MP-2(microSv/h),MP-3(microSv/h),MP-4(microSv/h),MP-5(microSv/h),MP-6(microSv/h),MP-7(microSv/h),Wind Direction,Wind Velocity(m/s),Rain
2018/02/01,00:00,0.328,0.200,0.326,0.314,0.295,0.167,0.101,north-northeast,5.8,No
2018/02/01,00:10,0.328,0.200,0.328,0.314,0.294,0.166,0.101,north,6.4,No
2018/02/01,00:20,0.328,0.199,0.327,0.314,0.293,0.167,0.100,north,4.9,No
2018/02/01,00:30,0.328,0.199,0.327,0.315,0.294,0.167,0.100,north,5.6,No
2018/02/01,00:40,0.328,0.199,0.329,0.317,0.295,0.166,0.100,north-northwest,5.7,No
2018/02/01,00:50,0.328,0.200,0.327,0.313,0.294,0.167,0.101,north,5.2,No
2018/02/01,01:00,0.328,0.200,0.328,0.315,0.294,0.166,0.101,north,5.7,No
2018/02/01,01:10,0.328,0.200,0.328,0.315,0.294,0.167,0.100,north,3.5,No
2018/02/01,01:20,0.327,0.198,0.327,0.315,0.294,0.166,0.101,north,4.0,No
2018/02/01,01:30,0.328,0.200,0.327,0.314,0.295,0.167,0.100,north-northeast,7.0,No
2018/02/01,01:40,0.328,0.199,0.328,0.314,0.295,0.166,0.101,north,7.4,No
2018/02/01,01:50,0.327,0.199,0.327,0.314,0.294,0.166,0.100,north,8.7,No
2018/02/01,02:00,0.328,0.200,0.328,0.315,0.294,0.166,0.100,north,9.0,No
2018/02/01,02:10,0.328,0.199,0.329,0.315,0.294,0.166,0.100,north,8.4,No
2018/02/01,02:20,0.328,0.200,0.329,0.315,0.295,0.166,0.101,north,7.3,No
2018/02/01,02:30,0.329,0.199,0.328,0.315,0.294,0.167,0.101,north,6.3,No
2018/02/01,02:40,0.328,0.200,0.329,0.314,0.294,0.167,0.101,north,7.3,No
2018/02/01,02:50,0.328,0.199,0.328,0.314,0.294,0.167,0.100,north,6.6,No
2018/02/01,03:00,0.329,0.200,0.328,0.315,0.295,0.167,0.101,north,7.0,No
2018/02/01,03:10,0.328,0.199,0.327,0.314,0.295,0.166,0.100,north,7.3,No
2018/02/01,03:20,0.329,0.199,0.327,0.314,0.293,0.166,0.100,north,8.4,No
2018/02/01,03:30,0.330,0.200,0.328,0.315,0.294,0.167,0.101,north,9.8,No
2018/02/01,03:40,0.328,0.198,0.328,0.315,0.294,0.167,0.101,north,9.2,No
2018/02/01,03:50,0.329,0.199,0.329,0.315,0.294,0.167,0.100,north,8.5,No
2018/02/01,04:00,0.329,0.201,0.327,0.315,0.294,0.167,0.100,north,7.9,No
2018/02/01,04:10,0.328,0.199,0.327,0.315,0.294,0.166,0.101,north,7.4,No
2018/02/01,04:20,0.328,0.200,0.327,0.314,0.294,0.167,0.100,north,8.6,No
2018/02/01,04:30,0.328,0.201,0.327,0.314,0.293,0.166,0.100,north,8.8,No
2018/02/01,04:40,0.329,0.200,0.328,0.314,0.293,0.167,0.101,north,7.4,No
2018/02/01,04:50,0.328,0.200,0.328,0.315,0.295,0.166,0.100,north,7.0,No
2018/02/01,05:00,0.329,0.199,0.328,0.314,0.295,0.167,0.101,north,7.4,No
2018/02/01,05:10,0.328,0.199,0.328,0.314,0.293,0.166,0.101,north,7.4,No
2018/02/01,05:20,0.329,0.199,0.329,0.314,0.293,0.166,0.101,north,7.5,No
2018/02/01,05:30,0.327,0.199,0.329,0.316,0.295,0.166,0.101,north,8.1,No
2018/02/01,05:40,0.328,0.200,0.330,0.316,0.295,0.167,0.100,north,8.5,No
2018/02/01,05:50,0.329,0.199,0.329,0.315,0.295,0.167,0.101,north,5.8,No
2018/02/01,06:00,0.329,0.200,0.328,0.314,0.294,0.166,0.101,north,7.6,No
2018/02/01,06:10,0.330,0.199,0.328,0.315,0.294,0.166,0.100,north,7.9,No
2018/02/01,06:20,0.328,0.200,0.327,0.315,0.295,0.167,0.101,north,6.0,No
2018/02/01,06:30,0.329,0.200,0.328,0.315,0.295,0.166,0.101,northeast,1.0,No
2018/02/01,06:40,0.328,0.200,0.329,0.315,0.294,0.166,0.101,north,6.4,No
2018/02/01,06:50,0.328,0.199,0.328,0.314,0.295,0.167,0.100,north,7.3,No
2018/02/01,07:00,0.329,0.200,0.327,0.315,0.295,0.166,0.100,north,7.3,No
2018/02/01,07:10,0.329,0.200,0.329,0.315,0.295,0.166,0.100,north,7.0,No
2018/02/01,07:20,0.328,0.200,0.329,0.315,0.295,0.167,0.101,north,5.5,No
2018/02/01,07:30,0.329,0.201,0.329,0.315,0.295,0.166,0.100,north,7.5,No
2018/02/01,07:40,0.329,0.200,0.328,0.314,0.293,0.167,0.101,north,6.3,No
2018/02/01,07:50,0.328,0.200,0.328,0.314,0.293,0.167,0.101,north,7.0,No
2018/02/01,08:00,0.329,0.199,0.328,0.316,0.296,0.166,0.101,north,6.3,No
2018/02/01,08:10,0.329,0.201,0.328,0.315,0.293,0.167,0.100,north,6.3,No
2018/02/01,08:20,0.328,0.200,0.329,0.314,0.294,0.166,0.101,north,6.0,No
2018/02/01,08:30,0.328,0.198,0.328,0.315,0.293,0.166,0.101,north,5.9,No
2018/02/01,08:40,0.328,0.199,0.328,0.315,0.294,0.166,0.101,north-northwest,4.2,No
2018/02/01,08:50,0.328,0.200,0.329,0.314,0.295,0.166,0.101,north,4.4,No
2018/02/01,09:00,0.328,0.200,0.328,0.315,0.294,0.167,0.101,north,2.9,No
2018/02/01,09:10,0.328,0.200,0.328,0.314,0.294,0.167,0.101,north,4.3,No
2018/02/01,09:20,0.328,0.199,0.328,0.315,0.294,0.166,0.101,north-northwest,3.2,No
2018/02/01,09:30,0.328,0.198,0.328,0.313,0.294,0.166,0.100,north,3.3,No
2018/02/01,09:40,0.328,0.198,0.327,0.313,0.294,0.166,0.100,north-northeast,2.9,No
2018/02/01,09:50,0.327,0.200,0.328,0.315,0.294,0.166,0.100,north-northeast,3.8,No
2018/02/01,10:00,0.328,0.199,0.329,0.314,0.295,0.166,0.100,north-northeast,4.6,No
2018/02/01,10:10,0.328,0.199,0.329,0.313,0.294,0.167,0.101,north-northeast,6.0,No
2018/02/01,10:20,0.327,0.200,0.328,0.313,0.294,0.167,0.100,north-northeast,5.9,No
2018/02/01,10:30,0.328,0.200,0.327,0.313,0.294,0.166,0.100,north-northeast,4.6,No
2018/02/01,10:40,0.327,0.200,0.328,0.314,0.295,0.166,0.100,northeast,4.8,No
2018/02/01,10:50,0.328,0.200,0.329,0.315,0.295,0.166,0.100,northeast,5.0,No
2018/02/01,11:00,0.326,0.199,0.329,0.315,0.294,0.166,0.100,northeast,4.6,No
2018/02/01,11:10,0.330,0.199,0.328,0.315,0.296,0.167,0.101,northeast,4.7,No
2018/02/01,11:20,0.328,0.199,0.328,0.314,0.295,0.167,0.100,northeast,3.7,No
2018/02/01,11:30,0.328,0.200,0.326,0.314,0.294,0.166,0.100,northeast,3.7,No
2018/02/01,11:40,0.328,0.199,0.328,0.314,0.295,0.166,0.100,north-northeast,3.2,No
2018/02/01,11:50,0.329,0.199,0.328,0.315,0.296,0.166,0.100,northeast,3.0,No
2018/02/01,12:00,0.329,0.199,0.328,0.314,0.295,0.167,0.100,north,3.2,No
2018/02/01,12:10,0.328,0.201,0.328,0.312,0.296,0.166,0.101,northeast,3.6,No
2018/02/01,12:20,0.326,0.200,0.329,0.316,0.295,0.167,0.100,northeast,4.7,No
2018/02/01,12:30,0.331,0.198,0.328,0.316,0.294,0.166,0.101,northeast,4.4,No
2018/02/01,12:40,0.327,0.199,0.327,0.315,0.295,0.166,0.101,northeast,4.1,No
2018/02/01,12:50,0.328,0.199,0.329,0.315,0.296,0.167,0.101,north-northeast,3.5,No
2018/02/01,13:00,0.329,0.200,0.327,0.315,0.295,0.167,0.101,north-northeast,3.8,No
2018/02/01,13:10,0.328,0.200,0.327,0.314,0.296,0.166,0.099,northeast,3.8,No
2018/02/01,13:20,0.330,0.200,0.330,0.315,0.297,0.166,0.099,northeast,5.0,No
2018/02/01,13:30,0.329,0.199,0.329,0.316,0.295,0.167,0.100,north-northeast,5.4,No
2018/02/01,13:40,0.329,0.199,0.328,0.313,0.296,0.166,0.099,north-northeast,3.7,No
2018/02/01,13:50,0.329,0.200,0.328,0.315,0.296,0.167,0.101,northeast,5.0,No
2018/02/01,14:00,0.328,0.199,0.330,0.316,0.295,0.167,0.101,north-northeast,3.8,No
2018/02/01,14:10,0.329,0.199,0.328,0.314,0.296,0.166,0.100,northeast,3.2,No
2018/02/01,14:20,0.331,0.200,0.327,0.314,0.296,0.166,0.100,northeast,3.1,No
2018/02/01,14:30,0.328,0.199,0.327,0.315,0.295,0.167,0.101,northeast,3.8,No
2018/02/01,14:40,0.328,0.200,0.329,0.315,0.296,0.166,0.100,north-northeast,3.6,No
2018/02/01,14:50,0.328,0.200,0.329,0.314,0.296,0.167,0.100,north-northeast,3.4,No
2018/02/01,15:00,0.330,0.201,0.327,0.316,0.295,0.166,0.101,northeast,4.2,No
2018/02/01,15:10,0.329,0.201,0.329,0.316,0.296,0.166,0.101,north-northeast,5.6,No
2018/02/01,15:20,0.329,0.199,0.329,0.314,0.296,0.166,0.100,north-northeast,4.1,No
2018/02/01,15:30,0.329,0.201,0.328,0.315,0.298,0.167,0.100,northeast,4.2,No
2018/02/01,15:40,0.329,0.200,0.328,0.315,0.296,0.166,0.100,north-northeast,2.4,No
2018/02/01,15:50,0.330,0.201,0.328,0.315,0.296,0.167,0.100,north,1.3,No
2018/02/01,16:00,0.328,0.200,0.330,0.316,0.296,0.167,0.101,north,0.9,No
2018/02/01,16:10,0.329,0.200,0.330,0.315,0.296,0.167,0.101,north,2.1,No
2018/02/01,16:20,0.331,0.200,0.328,0.316,0.296,0.166,0.100,north,1.4,No
2018/02/01,16:30,0.330,0.201,0.329,0.315,0.297,0.167,0.101,north,0.8,No
2018/02/01,16:40,0.329,0.200,0.328,0.315,0.299,0.166,0.100,north,1.0,No
2018/02/01,16:50,0.328,0.201,0.330,0.315,0.299,0.166,0.100,north-northeast,3.0,No
2018/02/01,17:00,0.330,0.201,0.329,0.316,0.297,0.167,0.099,north,3.6,No
2018/02/01,17:10,0.330,0.201,0.328,0.317,0.296,0.167,0.101,north-northwest,2.4,No
2018/02/01,17:20,0.330,0.200,0.328,0.315,0.295,0.166,0.100,north,4.0,No
2018/02/01,17:30,0.330,0.201,0.329,0.315,0.297,0.166,0.101,north,5.7,No
2018/02/01,17:40,0.330,0.200,0.328,0.314,0.297,0.166,0.101,north,6.1,No
2018/02/01,17:50,0.331,0.200,0.330,0.315,0.296,0.166,0.101,north,2.6,No
2018/02/01,18:00,0.328,0.200,0.329,0.316,0.296,0.167,0.100,north,3.5,No
2018/02/01,18:10,0.329,0.200,0.329,0.315,0.297,0.167,0.100,-,CALM,No
2018/02/01,18:20,0.330,0.200,0.328,0.314,0.297,0.167,0.101,north-northwest,2.6,No
2018/02/01,18:30,0.330,0.200,0.329,0.315,0.296,0.166,0.100,north-northwest,3.7,No
2018/02/01,18:40,0.331,0.200,0.330,0.315,0.296,0.166,0.101,north,3.8,No
2018/02/01,18:50,0.330,0.201,0.330,0.316,0.296,0.167,0.101,north-northwest,4.0,No
2018/02/01,19:00,0.331,0.200,0.328,0.315,0.298,0.166,0.100,north,5.5,No
2018/02/01,19:10,0.330,0.200,0.328,0.314,0.297,0.167,0.101,north,6.2,No
2018/02/01,19:20,0.332,0.200,0.328,0.315,0.295,0.167,0.101,north,6.4,No
2018/02/01,19:30,0.329,0.201,0.329,0.315,0.296,0.165,0.099,north,7.9,No
2018/02/01,19:40,0.331,0.199,0.329,0.315,0.296,0.166,0.101,north-northwest,8.1,No
2018/02/01,19:50,0.330,0.201,0.331,0.315,0.296,0.166,0.100,north-northwest,7.6,No
2018/02/01,20:00,0.330,0.200,0.328,0.316,0.296,0.167,0.100,north,8.2,No
2018/02/01,20:10,0.330,0.200,0.330,0.316,0.296,0.166,0.100,north,7.8,No
2018/02/01,20:20,0.330,0.199,0.329,0.315,0.297,0.165,0.100,north-northwest,7.3,No
2018/02/01,20:30,0.331,0.200,0.328,0.315,0.297,0.166,0.101,north,6.8,No
2018/02/01,20:40,0.330,0.201,0.329,0.316,0.295,0.166,0.100,north,8.4,No
2018/02/01,20:50,0.331,0.199,0.329,0.316,0.295,0.167,0.099,north-northwest,7.3,No
2018/02/01,21:00,0.331,0.200,0.329,0.315,0.296,0.167,0.100,north,6.5,No
2018/02/01,21:10,0.330,0.200,0.329,0.315,0.297,0.167,0.101,north,7.0,No
2018/02/01,21:20,0.330,0.201,0.329,0.316,0.297,0.167,0.100,north-northwest,7.9,No
2018/02/01,21:30,0.331,0.200,0.329,0.315,0.297,0.166,0.100,north,7.7,No
2018/02/01,21:40,0.330,0.201,0.327,0.316,0.296,0.167,0.100,north,7.0,No
2018/02/01,21:50,0.329,0.199,0.329,0.315,0.297,0.166,0.100,north-northwest,6.1,No
2018/02/01,22:00,0.331,0.200,0.329,0.317,0.296,0.167,0.100,north-northwest,6.5,No
2018/02/01,22:10,0.330,0.199,0.329,0.314,0.295,0.166,0.101,north-northwest,7.0,No
2018/02/01,22:20,0.330,0.200,0.330,0.317,0.297,0.165,0.101,north,8.4,No
2018/02/01,22:30,0.331,0.200,0.330,0.315,0.296,0.167,0.100,north,7.8,No
2018/02/01,22:40,0.330,0.200,0.328,0.315,0.296,0.166,0.101,north,8.4,No
2018/02/01,22:50,0.330,0.201,0.329,0.315,0.297,0.167,0.100,north,7.5,No
2018/02/01,23:00,0.330,0.200,0.330,0.316,0.296,0.166,0.100,north,8.4,No
2018/02/01,23:10,0.330,0.200,0.329,0.316,0.297,0.166,0.101,north,8.6,No
2018/02/01,23:20,0.330,0.200,0.328,0.315,0.298,0.166,0.101,north,6.7,No
2018/02/01,23:30,0.330,0.200,0.329,0.315,0.296,0.167,0.100,north,6.3,No
2018/02/01,23:40,0.331,0.201,0.330,0.315,0.296,0.167,0.101,north,7.0,No
2018/02/01,23:50,0.331,0.200,0.330,0.314,0.296,0.166,0.100,north,6.9,No
